Time,TemperatureF,DewpointF,PressureIn,WindDirection,WindDirectionDegrees,WindSpeedMPH,WindSpeedGustMPH,Humidity,HourlyPrecipIn,Conditions,Clouds,dailyrainin,SoftwareType,DateUTC
2013-07-23 00:01:00,78.4,62.6,29.85,NW,305,1.0,1.0,58,0.00,,,0.00,WUHU216DAVISVP2,2013-07-23 07:01:00,
2013-07-23 00:06:00,78.4,62.4,29.86,NW,305,0.0,1.0,58,0.00,,,0.00,WUHU216DAVISVP2,2013-07-23 07:06:00,
2013-07-23 00:11:00,78.4,62.9,29.85,NW,305,0.0,1.0,59,0.00,,,0.00,WUHU216DAVISVP2,2013-07-23 07:11:00,
2013-07-23 00:16:00,78.3,63.3,29.86,NW,304,0.0,1.0,60,0.00,,,0.00,WUHU216DAVISVP2,2013-07-23 07:16:00,
2013-07-23 00:21:00,78.2,63.4,29.86,NW,304,0.0,1.0,60,0.00,,,0.00,WUHU216DAVISVP2,2013-07-23 07:21:00,
2013-07-23 00:26:00,78.1,63.3,29.86,NW,305,0.0,1.0,60,0.00,,,0.00,WUHU216DAVISVP2,2013-07-23 07:26:00,
2013-07-23 00:31:00,77.9,63.1,29.86,NW,304,0.0,0.0,60,0.00,,,0.00,WUHU216DAVISVP2,2013-07-23 07:31:00,
2013-07-23 00:36:00,77.6,63.3,29.86,NW,304,2.0,3.0,61,0.00,,,0.00,WUHU216DAVISVP2,2013-07-23 07:36:00,
2013-07-23 00:41:00,77.3,63.5,29.86,NW,304,0.0,4.0,62,0.00,,,0.00,WUHU216DAVISVP2,2013-07-23 07:41:00,
2013-07-23 00:46:00,77.0,63.7,29.86,NW,304,1.0,4.0,63,0.00,,,0.00,WUHU216DAVISVP2,2013-07-23 07:46:00,
2013-07-23 00:51:00,76.7,63.6,29.87,NW,305,0.0,4.0,64,0.00,,,0.00,WUHU216DAVISVP2,2013-07-23 07:51:00,
2013-07-23 00:56:00,76.5,63.6,29.87,NW,305,0.0,4.0,64,0.00,,,0.00,WUHU216DAVISVP2,2013-07-23 07:56:00,
2013-07-23 01:01:00,76.3,63.9,29.87,NW,304,0.0,0.0,65,0.00,,,0.00,WUHU216DAVISVP2,2013-07-23 08:01:00,
2013-07-23 01:06:00,76.1,63.7,29.88,NW,305,0.0,1.0,65,0.00,,,0.00,WUHU216DAVISVP2,2013-07-23 08:06:00,
2013-07-23 01:11:00,75.9,63.9,29.88,NW,304,0.0,3.0,66,0.00,,,0.00,WUHU216DAVISVP2,2013-07-23 08:11:00,
2013-07-23 01:16:00,75.7,63.5,29.88,NW,305,0.0,3.0,66,0.00,,,0.00,WUHU216DAVISVP2,2013-07-23 08:16:00,
2013-07-23 01:21:00,75.5,64.0,29.88,NW,304,1.0,3.0,67,0.00,,,0.00,WUHU216DAVISVP2,2013-07-23 08:21:00,
2013-07-23 01:26:00,75.2,63.9,29.88,NW,305,0.0,3.0,68,0.00,,,0.00,WUHU216DAVISVP2,2013-07-23 08:26:00,
2013-07-23 01:31:00,75.1,63.6,29.88,NW,304,0.0,3.0,67,0.00,,,0.00,WUHU216DAVISVP2,2013-07-23 08:31:00,
2013-07-23 01:36:00,75.0,63.5,29.88,NW,305,0.0,2.0,67,0.00,,,0.00,WUHU216DAVISVP2,2013-07-23 08:36:00,
2013-07-23 01:41:00,74.9,63.4,29.88,NW,305,0.0,0.0,67,0.00,,,0.00,WUHU216DAVISVP2,2013-07-23 08:41:00,
2013-07-23 01:46:00,74.8,63.1,29.88,NW,304,0.0,0.0,67,0.00,,,0.00,WUHU216DAVISVP2,2013-07-23 08:46:00,
2013-07-23 01:51:00,74.8,62.9,29.88,NW,305,0.0,3.0,66,0.00,,,0.00,WUHU216DAVISVP2,2013-07-23 08:51:00,
2013-07-23 01:56:00,74.8,63.3,29.88,NW,305,0.0,3.0,67,0.00,,,0.00,WUHU216DAVISVP2,2013-07-23 08:56:00,
2013-07-23 02:01:00,75.0,63.5,29.88,NW,305,2.0,4.0,67,0.00,,,0.00,WUHU216DAVISVP2,2013-07-23 09:01:00,
2013-07-23 02:06:00,75.3,63.2,29.88,NW,305,0.0,6.0,66,0.00,,,0.00,WUHU216DAVISVP2,2013-07-23 09:06:00,
2013-07-23 02:11:00,75.6,63.7,29.88,NW,304,0.0,6.0,66,0.00,,,0.00,WUHU216DAVISVP2,2013-07-23 09:11:00,
2013-07-23 02:16:00,75.8,63.4,29.88,WNW,303,3.0,6.0,65,0.00,,,0.00,WUHU216DAVISVP2,2013-07-23 09:16:00,
2013-07-23 02:21:00,76.0,63.6,29.88,WNW,303,0.0,6.0,65,0.00,,,0.00,WUHU216DAVISVP2,2013-07-23 09:21:00,
2013-07-23 02:26:00,76.1,63.3,29.88,WNW,303,3.0,5.0,64,0.00,,,0.00,WUHU216DAVISVP2,2013-07-23 09:26:00,
2013-07-23 02:31:00,76.2,63.4,29.89,WNW,303,0.0,5.0,64,0.00,,,0.00,WUHU216DAVISVP2,2013-07-23 09:31:00,
2013-07-23 02:36:00,76.3,63.2,29.89,WNW,303,2.0,5.0,64,0.00,,,0.00,WUHU216DAVISVP2,2013-07-23 09:36:00,
2013-07-23 02:41:00,76.3,63.5,29.89,WNW,303,0.0,5.0,64,0.00,,,0.00,WUHU216DAVISVP2,2013-07-23 09:41:00,
2013-07-23 02:46:00,76.3,63.5,29.89,WNW,303,2.0,2.0,64,0.00,,,0.00,WUHU216DAVISVP2,2013-07-23 09:46:00,
2013-07-23 02:51:00,76.3,64.3,29.89,WNW,303,0.0,2.0,66,0.00,,,0.00,WUHU216DAVISVP2,2013-07-23 09:51:00,
2013-07-23 02:56:00,76.2,64.2,29.89,WNW,303,0.0,2.0,66,0.00,,,0.00,WUHU216DAVISVP2,2013-07-23 09:56:00,
2013-07-23 03:01:00,76.2,64.7,29.89,WNW,303,0.0,3.0,67,0.00,,,0.00,WUHU216DAVISVP2,2013-07-23 10:01:00,
2013-07-23 03:06:00,76.1,64.1,29.89,WNW,303,0.0,3.0,66,0.00,,,0.00,WUHU216DAVISVP2,2013-07-23 10:06:00,
2013-07-23 03:11:00,76.0,64.0,29.89,WNW,303,0.0,0.0,66,0.00,,,0.00,WUHU216DAVISVP2,2013-07-23 10:11:00,
2013-07-23 03:16:00,75.9,63.9,29.89,WNW,303,0.0,2.0,66,0.00,,,0.00,WUHU216DAVISVP2,2013-07-23 10:16:00,
2013-07-23 03:21:00,75.8,63.9,29.89,WNW,303,3.0,4.0,66,0.00,,,0.00,WUHU216DAVISVP2,2013-07-23 10:21:00,
2013-07-23 03:26:00,75.7,63.8,29.89,WNW,303,3.0,5.0,66,0.00,,,0.00,WUHU216DAVISVP2,2013-07-23 10:26:00,
2013-07-23 03:31:00,75.7,63.3,29.88,WNW,303,0.0,6.0,65,0.00,,,0.00,WUHU216DAVISVP2,2013-07-23 10:31:00,
2013-07-23 03:36:00,75.7,63.3,29.88,WNW,303,0.0,6.0,65,0.00,,,0.00,WUHU216DAVISVP2,2013-07-23 10:36:00,
2013-07-23 03:41:00,75.7,63.3,29.88,WNW,303,1.0,6.0,65,0.00,,,0.00,WUHU216DAVISVP2,2013-07-23 10:41:00,
2013-07-23 03:46:00,75.7,63.8,29.89,WNW,303,0.0,4.0,66,0.00,,,0.00,WUHU216DAVISVP2,2013-07-23 10:46:00,
2013-07-23 03:51:00,75.7,63.3,29.88,WNW,303,0.0,5.0,65,0.00,,,0.00,WUHU216DAVISVP2,2013-07-23 10:51:00,
2013-07-23 03:56:00,75.8,63.2,29.88,WNW,303,0.0,5.0,65,0.00,,,0.00,WUHU216DAVISVP2,2013-07-23 10:56:00,
2013-07-23 04:01:00,75.7,63.1,29.88,WNW,303,0.0,5.0,65,0.00,,,0.00,WUHU216DAVISVP2,2013-07-23 11:01:00,
2013-07-23 04:06:00,75.7,63.3,29.87,WNW,303,0.0,3.0,65,0.00,,,0.00,WUHU216DAVISVP2,2013-07-23 11:06:00,
2013-07-23 04:11:00,75.7,63.3,29.87,WNW,303,2.0,4.0,65,0.00,,,0.00,WUHU216DAVISVP2,2013-07-23 11:11:00,
2013-07-23 04:16:00,75.7,63.3,29.87,WNW,303,0.0,4.0,65,0.00,,,0.00,WUHU216DAVISVP2,2013-07-23 11:16:00,
2013-07-23 04:21:00,75.6,63.2,29.87,WNW,303,0.0,3.0,65,0.00,,,0.00,WUHU216DAVISVP2,2013-07-23 11:21:00,
2013-07-23 04:26:00,75.6,63.2,29.86,WNW,303,0.0,0.0,65,0.00,,,0.00,WUHU216DAVISVP2,2013-07-23 11:26:00,
2013-07-23 04:31:00,75.6,64.7,29.86,WNW,303,0.0,0.0,69,0.00,,,0.00,WUHU216DAVISVP2,2013-07-23 11:31:00,
2013-07-23 04:36:00,75.5,62.9,29.86,WNW,303,0.0,4.0,65,0.00,,,0.00,WUHU216DAVISVP2,2013-07-23 11:36:00,
2013-07-23 04:41:00,75.4,63.0,29.86,WNW,300,0.0,5.0,65,0.00,,,0.00,WUHU216DAVISVP2,2013-07-23 11:41:00,
2013-07-23 04:46:00,75.3,62.5,29.86,WNW,300,0.0,5.0,64,0.00,,,0.00,WUHU216DAVISVP2,2013-07-23 11:46:00,
2013-07-23 04:51:00,75.3,62.9,29.86,SSW,196,4.0,6.0,65,0.00,,,0.00,WUHU216DAVISVP2,2013-07-23 11:51:00,
2013-07-23 04:56:00,75.2,62.6,29.87,South,186,0.0,6.0,65,0.00,,,0.00,WUHU216DAVISVP2,2013-07-23 11:56:00,
2013-07-23 05:01:00,75.2,63.3,29.89,NW,304,0.0,6.0,66,0.00,,,0.00,WUHU216DAVISVP2,2013-07-23 12:01:00,
2013-07-23 05:06:00,75.1,63.2,29.88,NW,304,0.0,4.0,66,0.00,,,0.00,WUHU216DAVISVP2,2013-07-23 12:06:00,
2013-07-23 05:11:00,75.1,63.2,29.89,NW,304,0.0,1.0,66,0.00,,,0.00,WUHU216DAVISVP2,2013-07-23 12:11:00,
2013-07-23 05:16:00,75.0,62.7,29.88,NW,304,0.0,0.0,65,0.00,,,0.00,WUHU216DAVISVP2,2013-07-23 12:16:00,
2013-07-23 05:21:00,74.8,62.5,29.89,NW,304,0.0,3.0,65,0.00,,,0.00,WUHU216DAVISVP2,2013-07-23 12:21:00,
2013-07-23 05:26:00,74.7,62.4,29.88,SW,223,0.0,5.0,65,0.00,,,0.00,WUHU216DAVISVP2,2013-07-23 12:26:00,
2013-07-23 05:31:00,74.6,62.1,29.89,WNW,298,0.0,5.0,65,0.00,,,0.00,WUHU216DAVISVP2,2013-07-23 12:31:00,
2013-07-23 05:36:00,74.4,62.3,29.88,WNW,298,4.0,4.0,66,0.00,,,0.00,WUHU216DAVISVP2,2013-07-23 12:36:00,
2013-07-23 05:41:00,74.2,61.7,29.89,West,265,0.0,4.0,65,0.00,,,0.00,WUHU216DAVISVP2,2013-07-23 12:41:00,
2013-07-23 05:46:00,74.1,61.8,29.89,West,265,0.0,4.0,65,0.00,,,0.00,WUHU216DAVISVP2,2013-07-23 12:46:00,
2013-07-23 05:51:00,74.0,61.7,29.89,West,265,0.0,2.0,65,0.00,,,0.00,WUHU216DAVISVP2,2013-07-23 12:51:00,
2013-07-23 05:56:00,73.8,61.5,29.90,West,270,4.0,4.0,65,0.00,,,0.00,WUHU216DAVISVP2,2013-07-23 12:56:00,
2013-07-23 06:01:00,73.7,61.4,29.90,West,270,0.0,4.0,65,0.00,,,0.00,WUHU216DAVISVP2,2013-07-23 13:01:00,
2013-07-23 06:06:00,73.6,61.3,29.90,West,270,0.0,4.0,65,0.00,,,0.00,WUHU216DAVISVP2,2013-07-23 13:06:00,
2013-07-23 06:11:00,73.4,60.9,29.90,West,270,0.0,4.0,65,0.00,,,0.00,WUHU216DAVISVP2,2013-07-23 13:11:00,
2013-07-23 06:16:00,73.3,60.8,29.90,West,270,2.0,3.0,65,0.00,,,0.00,WUHU216DAVISVP2,2013-07-23 13:16:00,
2013-07-23 06:21:00,73.1,61.1,29.90,West,271,0.0,5.0,66,0.00,,,0.00,WUHU216DAVISVP2,2013-07-23 13:21:00,
2013-07-23 06:26:00,73.0,61.0,29.90,West,271,0.0,5.0,66,0.00,,,0.00,WUHU216DAVISVP2,2013-07-23 13:26:00,
2013-07-23 06:31:00,72.8,61.4,29.90,WNW,286,3.0,6.0,67,0.00,,,0.00,WUHU216DAVISVP2,2013-07-23 13:31:00,
2013-07-23 06:36:00,72.7,60.9,29.90,WNW,287,4.0,6.0,66,0.00,,,0.00,WUHU216DAVISVP2,2013-07-23 13:36:00,
2013-07-23 06:41:00,72.6,60.8,29.90,WNW,288,1.0,5.0,66,0.00,,,0.00,WUHU216DAVISVP2,2013-07-23 13:41:00,
2013-07-23 06:46:00,72.6,60.8,29.90,WNW,288,0.0,5.0,66,0.00,,,0.00,WUHU216DAVISVP2,2013-07-23 13:46:00,
2013-07-23 06:51:00,72.6,60.6,29.90,WNW,288,0.0,4.0,66,0.00,,,0.00,WUHU216DAVISVP2,2013-07-23 13:51:00,
2013-07-23 06:56:00,72.7,60.5,29.90,WNW,288,2.0,4.0,65,0.00,,,0.00,WUHU216DAVISVP2,2013-07-23 13:56:00,
2013-07-23 07:01:00,72.9,60.7,29.90,WNW,288,3.0,4.0,65,0.00,,,0.00,WUHU216DAVISVP2,2013-07-23 14:01:00,
2013-07-23 07:06:00,73.1,60.8,29.91,WNW,288,3.0,5.0,65,0.00,,,0.00,WUHU216DAVISVP2,2013-07-23 14:06:00,
2013-07-23 07:11:00,73.3,60.6,29.91,WNW,288,3.0,5.0,64,0.00,,,0.00,WUHU216DAVISVP2,2013-07-23 14:11:00,
2013-07-23 07:16:00,73.7,60.5,29.91,WNW,289,2.0,6.0,63,0.00,,,0.00,WUHU216DAVISVP2,2013-07-23 14:16:00,
2013-07-23 07:21:00,74.1,60.2,29.91,NW,311,3.0,7.0,62,0.00,,,0.00,WUHU216DAVISVP2,2013-07-23 14:21:00,
2013-07-23 07:26:00,74.5,61.1,29.91,WNW,298,2.0,7.0,63,0.00,,,0.00,WUHU216DAVISVP2,2013-07-23 14:26:00,
2013-07-23 07:31:00,74.9,61.2,29.92,NW,326,4.0,7.0,62,0.00,,,0.00,WUHU216DAVISVP2,2013-07-23 14:31:00,
2013-07-23 07:36:00,75.2,61.0,29.92,NW,326,2.0,7.0,61,0.00,,,0.00,WUHU216DAVISVP2,2013-07-23 14:36:00,
2013-07-23 07:41:00,75.7,61.5,29.92,NW,325,6.0,6.0,61,0.00,,,0.00,WUHU216DAVISVP2,2013-07-23 14:41:00,
2013-07-23 07:46:00,76.1,61.4,29.92,WNW,301,3.0,7.0,60,0.00,,,0.00,WUHU216DAVISVP2,2013-07-23 14:46:00,
2013-07-23 07:51:00,76.4,61.7,29.92,NW,324,7.0,7.0,60,0.00,,,0.00,WUHU216DAVISVP2,2013-07-23 14:51:00,
2013-07-23 07:56:00,76.8,60.9,29.92,NW,325,5.0,7.0,58,0.00,,,0.00,WUHU216DAVISVP2,2013-07-23 14:56:00,
2013-07-23 08:01:00,77.2,60.8,29.92,NW,325,4.0,8.0,57,0.00,,,0.00,WUHU216DAVISVP2,2013-07-23 15:01:00,
2013-07-23 08:06:00,77.4,61.0,29.92,NNW,327,7.0,8.0,57,0.00,,,0.00,WUHU216DAVISVP2,2013-07-23 15:06:00,
2013-07-23 08:11:00,77.6,61.4,29.92,NNW,340,4.0,8.0,57,0.00,,,0.00,WUHU216DAVISVP2,2013-07-23 15:11:00,
2013-07-23 08:16:00,77.8,61.5,29.92,NNW,346,4.0,9.0,57,0.00,,,0.00,WUHU216DAVISVP2,2013-07-23 15:16:00,
2013-07-23 08:21:00,78.2,61.9,29.92,NE,49,3.0,9.0,57,0.00,,,0.00,WUHU216DAVISVP2,2013-07-23 15:21:00,
2013-07-23 08:26:00,78.4,61.6,29.93,NNW,340,4.0,6.0,56,0.00,,,0.00,WUHU216DAVISVP2,2013-07-23 15:26:00,
2013-07-23 08:31:00,78.6,61.8,29.93,NNW,338,3.0,6.0,56,0.00,,,0.00,WUHU216DAVISVP2,2013-07-23 15:31:00,
2013-07-23 08:36:00,78.9,62.1,29.93,North,355,3.0,6.0,56,0.00,,,0.00,WUHU216DAVISVP2,2013-07-23 15:36:00,
2013-07-23 08:41:00,79.3,62.2,29.93,NW,312,0.0,6.0,56,0.00,,,0.00,WUHU216DAVISVP2,2013-07-23 15:41:00,
2013-07-23 08:46:00,79.6,62.7,29.93,NW,312,1.0,6.0,56,0.00,,,0.00,WUHU216DAVISVP2,2013-07-23 15:46:00,
2013-07-23 08:51:00,79.9,61.9,29.93,NW,312,3.0,5.0,54,0.00,,,0.00,WUHU216DAVISVP2,2013-07-23 15:51:00,
2013-07-23 08:56:00,80.3,62.7,29.93,NW,312,0.0,5.0,55,0.00,,,0.00,WUHU216DAVISVP2,2013-07-23 15:56:00,
2013-07-23 09:01:00,80.7,61.4,29.93,NW,311,3.0,5.0,52,0.00,,,0.00,WUHU216DAVISVP2,2013-07-23 16:01:00,
2013-07-23 09:06:00,81.0,62.4,29.93,NW,311,2.0,4.0,53,0.00,,,0.00,WUHU216DAVISVP2,2013-07-23 16:06:00,
2013-07-23 09:11:00,81.3,63.2,29.93,NW,311,2.0,5.0,54,0.00,,,0.00,WUHU216DAVISVP2,2013-07-23 16:11:00,
2013-07-23 09:16:00,81.8,62.5,29.93,WSW,254,6.0,6.0,52,0.00,,,0.00,WUHU216DAVISVP2,2013-07-23 16:16:00,
2013-07-23 09:21:00,82.1,62.9,29.93,NW,305,4.0,7.0,52,0.00,,,0.00,WUHU216DAVISVP2,2013-07-23 16:21:00,
2013-07-23 09:26:00,82.4,63.2,29.93,West,261,0.0,8.0,52,0.00,,,0.00,WUHU216DAVISVP2,2013-07-23 16:26:00,
2013-07-23 09:31:00,82.5,63.3,29.93,West,268,4.0,8.0,52,0.00,,,0.00,WUHU216DAVISVP2,2013-07-23 16:31:00,
2013-07-23 09:36:00,82.7,64.0,29.93,West,272,3.0,7.0,53,0.00,,,0.00,WUHU216DAVISVP2,2013-07-23 16:36:00,
2013-07-23 09:41:00,82.7,63.3,29.93,NW,305,5.0,8.0,52,0.00,,,0.00,WUHU216DAVISVP2,2013-07-23 16:41:00,
2013-07-23 09:46:00,82.4,63.0,29.93,NW,305,5.0,8.0,52,0.00,,,0.00,WUHU216DAVISVP2,2013-07-23 16:46:00,
2013-07-23 09:51:00,82.3,63.5,29.93,WNW,302,3.0,7.0,53,0.00,,,0.00,WUHU216DAVISVP2,2013-07-23 16:51:00,
2013-07-23 09:56:00,82.4,63.0,29.93,WNW,298,3.0,6.0,52,0.00,,,0.00,WUHU216DAVISVP2,2013-07-23 16:56:00,
2013-07-23 10:01:00,82.7,63.4,29.93,NW,304,2.0,6.0,52,0.00,,,0.00,WUHU216DAVISVP2,2013-07-23 17:01:00,
2013-07-23 10:06:00,83.0,63.7,29.93,WNW,294,4.0,8.0,52,0.00,,,0.00,WUHU216DAVISVP2,2013-07-23 17:06:00,
2013-07-23 10:11:00,83.0,63.7,29.93,West,270,2.0,8.0,52,0.00,,,0.00,WUHU216DAVISVP2,2013-07-23 17:11:00,
2013-07-23 10:16:00,83.2,63.3,29.93,WNW,284,2.0,8.0,51,0.00,,,0.00,WUHU216DAVISVP2,2013-07-23 17:16:00,
2013-07-23 10:21:00,83.4,63.5,29.93,West,279,2.0,6.0,51,0.00,,,0.00,WUHU216DAVISVP2,2013-07-23 17:21:00,
2013-07-23 10:26:00,83.8,65.0,29.94,NNW,331,5.0,7.0,53,0.00,,,0.00,WUHU216DAVISVP2,2013-07-23 17:26:00,
2013-07-23 10:31:00,84.3,64.9,29.93,NW,325,4.0,7.0,52,0.00,,,0.00,WUHU216DAVISVP2,2013-07-23 17:31:00,
2013-07-23 10:36:00,84.5,64.5,29.94,NW,305,0.0,7.0,51,0.00,,,0.00,WUHU216DAVISVP2,2013-07-23 17:36:00,
2013-07-23 10:41:00,84.6,65.2,29.93,NW,306,0.0,6.0,52,0.00,,,0.00,WUHU216DAVISVP2,2013-07-23 17:41:00,
2013-07-23 10:46:00,85.0,66.1,29.93,NNW,338,7.0,8.0,53,0.00,,,0.00,WUHU216DAVISVP2,2013-07-23 17:46:00,
2013-07-23 10:52:00,85.4,66.0,29.94,NW,321,0.0,11.0,52,0.00,,,0.00,WUHU216DAVISVP2,2013-07-23 17:52:00,
2013-07-23 10:57:00,86.0,65.9,29.93,NNE,12,5.0,9.0,51,0.00,,,0.00,WUHU216DAVISVP2,2013-07-23 17:57:00,
2013-07-23 11:02:00,86.4,66.7,29.93,NW,321,5.0,7.0,52,0.00,,,0.00,WUHU216DAVISVP2,2013-07-23 18:02:00,
2013-07-23 11:07:00,86.5,65.7,29.94,NW,324,6.0,8.0,50,0.00,,,0.00,WUHU216DAVISVP2,2013-07-23 18:07:00,
2013-07-23 11:12:00,86.3,65.5,29.93,NW,311,3.0,8.0,50,0.00,,,0.00,WUHU216DAVISVP2,2013-07-23 18:12:00,
2013-07-23 11:17:00,86.3,66.0,29.93,NW,319,4.0,8.0,51,0.00,,,0.00,WUHU216DAVISVP2,2013-07-23 18:17:00,
2013-07-23 11:22:00,86.4,65.0,29.93,WNW,282,7.0,9.0,49,0.00,,,0.00,WUHU216DAVISVP2,2013-07-23 18:22:00,
2013-07-23 11:27:00,86.5,64.6,29.93,NW,309,0.0,9.0,48,0.00,,,0.00,WUHU216DAVISVP2,2013-07-23 18:27:00,
2013-07-23 11:32:00,86.7,65.4,29.93,NNW,327,0.0,8.0,49,0.00,,,0.00,WUHU216DAVISVP2,2013-07-23 18:32:00,
2013-07-23 11:37:00,87.1,67.5,29.93,North,355,6.0,6.0,52,0.00,,,0.00,WUHU216DAVISVP2,2013-07-23 18:37:00,
2013-07-23 11:42:00,87.6,66.2,29.93,NW,320,0.0,7.0,49,0.00,,,0.00,WUHU216DAVISVP2,2013-07-23 18:42:00,
2013-07-23 11:48:00,87.8,67.6,29.93,NNW,328,3.0,7.0,51,0.00,,,0.00,WUHU216DAVISVP2,2013-07-23 18:48:00,
2013-07-23 11:53:00,88.1,67.9,29.93,NE,54,3.0,7.0,51,0.00,,,0.00,WUHU216DAVISVP2,2013-07-23 18:53:00,
2013-07-23 11:58:00,88.4,67.4,29.92,North,360,1.0,5.0,50,0.00,,,0.00,WUHU216DAVISVP2,2013-07-23 18:58:00,
2013-07-23 12:03:00,88.5,66.9,29.92,WNW,296,5.0,8.0,49,0.00,,,0.00,WUHU216DAVISVP2,2013-07-23 19:03:00,
2013-07-23 12:08:00,88.4,67.0,29.92,WNW,296,0.0,8.0,49,0.00,,,0.00,WUHU216DAVISVP2,2013-07-23 19:08:00,
2013-07-23 12:13:00,88.5,67.1,29.92,WNW,302,3.0,7.0,49,0.00,,,0.00,WUHU216DAVISVP2,2013-07-23 19:13:00,
2013-07-23 12:18:00,88.8,66.0,29.92,NW,310,3.0,8.0,47,0.00,,,0.00,WUHU216DAVISVP2,2013-07-23 19:18:00,
2013-07-23 12:23:00,89.0,66.3,29.92,NNW,329,4.0,8.0,47,0.00,,,0.00,WUHU216DAVISVP2,2013-07-23 19:23:00,
2013-07-23 12:28:00,89.0,65.6,29.92,NW,325,0.0,8.0,46,0.00,,,0.00,WUHU216DAVISVP2,2013-07-23 19:28:00,
2013-07-23 12:33:00,89.0,66.3,29.91,NW,310,1.0,7.0,47,0.00,,,0.00,WUHU216DAVISVP2,2013-07-23 19:33:00,
2013-07-23 12:38:00,89.0,66.8,29.91,WNW,297,2.0,8.0,48,0.00,,,0.00,WUHU216DAVISVP2,2013-07-23 19:38:00,
2013-07-23 12:43:00,89.4,66.6,29.91,NW,313,4.0,8.0,47,0.00,,,0.00,WUHU216DAVISVP2,2013-07-23 19:43:00,
2013-07-23 12:48:00,89.9,66.3,29.91,West,268,0.0,10.0,46,0.00,,,0.00,WUHU216DAVISVP2,2013-07-23 19:48:00,
2013-07-23 12:53:00,89.7,66.2,29.91,NNW,342,0.0,10.0,46,0.00,,,0.00,WUHU216DAVISVP2,2013-07-23 19:53:00,
2013-07-23 12:58:00,89.5,66.1,29.91,NW,323,5.0,7.0,46,0.00,,,0.00,WUHU216DAVISVP2,2013-07-23 19:58:00,
2013-07-23 13:03:00,89.1,65.7,29.90,WNW,296,4.0,9.0,46,0.00,,,0.00,WUHU216DAVISVP2,2013-07-23 20:03:00,
2013-07-23 13:08:00,89.0,66.3,29.90,WNW,300,0.0,9.0,47,0.00,,,0.00,WUHU216DAVISVP2,2013-07-23 20:08:00,
2013-07-23 13:13:00,88.9,66.8,29.90,NW,310,5.0,7.0,48,0.00,,,0.00,WUHU216DAVISVP2,2013-07-23 20:13:00,
2013-07-23 13:19:00,88.7,67.2,29.90,NNW,338,5.0,7.0,49,0.00,,,0.00,WUHU216DAVISVP2,2013-07-23 20:19:00,
2013-07-23 13:24:00,88.8,68.5,29.90,NW,325,2.0,7.0,51,0.00,,,0.00,WUHU216DAVISVP2,2013-07-23 20:24:00,
2013-07-23 13:29:00,89.5,68.6,29.90,North,5,4.0,7.0,50,0.00,,,0.00,WUHU216DAVISVP2,2013-07-23 20:29:00,
2013-07-23 13:34:00,90.0,68.9,29.90,WNW,293,0.0,6.0,50,0.00,,,0.00,WUHU216DAVISVP2,2013-07-23 20:34:00,
2013-07-23 13:39:00,90.6,69.0,29.89,NE,48,6.0,6.0,49,0.00,,,0.00,WUHU216DAVISVP2,2013-07-23 20:39:00,
2013-07-23 13:44:00,91.2,69.4,29.89,NW,321,6.0,8.0,49,0.00,,,0.00,WUHU216DAVISVP2,2013-07-23 20:44:00,
2013-07-23 13:49:00,91.7,70.0,29.89,NW,313,0.0,8.0,49,0.00,,,0.00,WUHU216DAVISVP2,2013-07-23 20:49:00,
2013-07-23 13:54:00,92.0,69.0,29.89,WNW,301,4.0,9.0,47,0.00,,,0.00,WUHU216DAVISVP2,2013-07-23 20:54:00,
2013-07-23 13:59:00,92.3,69.9,29.89,WNW,298,0.0,9.0,48,0.00,,,0.00,WUHU216DAVISVP2,2013-07-23 20:59:00,
2013-07-23 14:05:00,92.8,69.6,29.88,North,9,1.0,6.0,47,0.00,,,0.00,WUHU216DAVISVP2,2013-07-23 21:05:00,
2013-07-23 14:10:00,93.5,65.6,29.88,NW,318,6.0,9.0,40,0.00,,,0.00,WUHU216DAVISVP2,2013-07-23 21:10:00,
2013-07-23 14:15:00,93.8,65.1,29.88,North,349,4.0,9.0,39,0.00,,,0.00,WUHU216DAVISVP2,2013-07-23 21:15:00,
2013-07-23 14:20:00,94.0,65.3,29.88,NNW,343,2.0,10.0,39,0.00,,,0.00,WUHU216DAVISVP2,2013-07-23 21:20:00,
2013-07-23 14:25:00,93.9,64.4,29.88,NW,311,1.0,10.0,38,0.00,,,0.00,WUHU216DAVISVP2,2013-07-23 21:25:00,
2013-07-23 14:34:00,93.9,64.4,29.88,NW,311,1.0,10.0,38,0.00,,,0.00,WUHU216DAVISVP2,2013-07-23 21:34:00,
2013-07-23 14:39:00,93.6,67.1,29.88,North,5,4.0,10.0,42,0.00,,,0.00,WUHU216DAVISVP2,2013-07-23 21:39:00,
2013-07-23 14:44:00,93.8,66.6,29.88,WNW,294,7.0,10.0,41,0.00,,,0.00,WUHU216DAVISVP2,2013-07-23 21:44:00,
2013-07-23 14:50:00,94.1,66.1,29.87,WNW,293,6.0,10.0,40,0.00,,,0.00,WUHU216DAVISVP2,2013-07-23 21:50:00,
2013-07-23 14:55:00,94.6,64.3,29.87,NNW,336,10.0,12.0,37,0.00,,,0.00,WUHU216DAVISVP2,2013-07-23 21:55:00,
2013-07-23 15:00:00,94.9,64.5,29.87,NNW,334,5.0,12.0,37,0.00,,,0.00,WUHU216DAVISVP2,2013-07-23 22:00:00,
2013-07-23 15:05:00,95.3,65.7,29.87,NW,310,2.0,12.0,38,0.00,,,0.00,WUHU216DAVISVP2,2013-07-23 22:05:00,
2013-07-23 15:10:00,95.4,65.7,29.87,NNW,341,7.0,10.0,38,0.00,,,0.00,WUHU216DAVISVP2,2013-07-23 22:10:00,
2013-07-23 15:15:00,95.6,63.5,29.86,NW,308,6.0,12.0,35,0.00,,,0.00,WUHU216DAVISVP2,2013-07-23 22:15:00,
2013-07-23 15:20:00,96.1,63.1,29.86,North,350,6.0,11.0,34,0.00,,,0.00,WUHU216DAVISVP2,2013-07-23 22:20:00,
2013-07-23 15:25:00,96.7,64.5,29.86,NNW,331,4.0,10.0,35,0.00,,,0.00,WUHU216DAVISVP2,2013-07-23 22:25:00,
2013-07-23 15:30:00,97.2,63.2,29.86,NNW,337,11.0,11.0,33,0.00,,,0.00,WUHU216DAVISVP2,2013-07-23 22:30:00,
2013-07-23 15:35:00,97.6,63.6,29.86,NW,319,7.0,12.0,33,0.00,,,0.00,WUHU216DAVISVP2,2013-07-23 22:35:00,
2013-07-23 15:41:00,97.9,61.1,29.85,NNW,340,2.0,12.0,30,0.00,,,0.00,WUHU216DAVISVP2,2013-07-23 22:41:00,
2013-07-23 15:46:00,98.1,64.0,29.85,NW,325,10.0,13.0,33,0.00,,,0.00,WUHU216DAVISVP2,2013-07-23 22:46:00,
2013-07-23 15:50:00,98.1,61.3,29.85,North,360,0.0,13.0,30,0.00,,,0.00,WUHU216DAVISVP2,2013-07-23 22:50:00,
2013-07-23 15:56:00,98.3,63.3,29.85,NNW,331,0.0,10.0,32,0.00,,,0.00,WUHU216DAVISVP2,2013-07-23 22:56:00,
2013-07-23 16:01:00,98.4,63.4,29.85,North,355,9.0,11.0,32,0.00,,,0.00,WUHU216DAVISVP2,2013-07-23 23:01:00,
2013-07-23 16:06:00,98.5,63.5,29.85,WNW,300,8.0,11.0,32,0.00,,,0.00,WUHU216DAVISVP2,2013-07-23 23:06:00,
2013-07-23 16:11:00,98.3,63.3,29.85,NNW,330,7.0,14.0,32,0.00,,,0.00,WUHU216DAVISVP2,2013-07-23 23:11:00,
2013-07-23 16:16:00,98.3,62.4,29.84,NNE,32,3.0,14.0,31,0.00,,,0.00,WUHU216DAVISVP2,2013-07-23 23:16:00,
2013-07-23 16:21:00,98.5,64.4,29.85,NNW,340,11.0,12.0,33,0.00,,,0.00,WUHU216DAVISVP2,2013-07-23 23:21:00,
2013-07-23 16:26:00,98.3,64.3,29.84,NW,305,10.0,13.0,33,0.00,,,0.00,WUHU216DAVISVP2,2013-07-23 23:26:00,
2013-07-23 16:31:00,98.1,65.7,29.84,NNW,340,6.0,12.0,35,0.00,,,0.00,WUHU216DAVISVP2,2013-07-23 23:31:00,
2013-07-23 16:36:00,98.2,65.0,29.84,NW,319,8.0,11.0,34,0.00,,,0.00,WUHU216DAVISVP2,2013-07-23 23:36:00,
2013-07-23 16:41:00,98.2,63.2,29.84,NNW,344,7.0,11.0,32,0.00,,,0.00,WUHU216DAVISVP2,2013-07-23 23:41:00,
2013-07-23 16:47:00,98.0,63.9,29.84,NNW,338,7.0,12.0,33,0.00,,,0.00,WUHU216DAVISVP2,2013-07-23 23:47:00,
2013-07-23 16:52:00,97.9,63.9,29.84,North,360,6.0,12.0,33,0.00,,,0.00,WUHU216DAVISVP2,2013-07-23 23:52:00,
2013-07-23 16:57:00,97.7,62.9,29.83,NNW,339,9.0,12.0,32,0.00,,,0.00,WUHU216DAVISVP2,2013-07-23 23:57:00,
2013-07-23 17:02:00,97.6,60.9,29.83,North,355,0.0,11.0,30,0.00,,,0.00,WUHU216DAVISVP2,2013-07-24 00:02:00,
2013-07-23 17:07:00,97.4,61.6,29.83,NW,315,12.0,12.0,31,0.00,,,0.00,WUHU216DAVISVP2,2013-07-24 00:07:00,
2013-07-23 17:12:00,97.1,60.4,29.83,NW,325,11.0,12.0,30,0.00,,,0.00,WUHU216DAVISVP2,2013-07-24 00:12:00,
2013-07-23 17:17:00,97.0,61.3,29.83,NW,318,2.0,12.0,31,0.00,,,0.00,WUHU216DAVISVP2,2013-07-24 00:17:00,
2013-07-23 17:22:00,96.8,61.1,29.83,NW,313,7.0,12.0,31,0.00,,,0.00,WUHU216DAVISVP2,2013-07-24 00:22:00,
2013-07-23 17:27:00,96.9,62.1,29.83,NW,317,12.0,14.0,32,0.00,,,0.00,WUHU216DAVISVP2,2013-07-24 00:27:00,
2013-07-23 17:32:00,96.5,61.7,29.83,NW,311,10.0,15.0,32,0.00,,,0.00,WUHU216DAVISVP2,2013-07-24 00:32:00,
2013-07-23 17:37:00,96.2,61.5,29.83,NNW,332,7.0,15.0,32,0.00,,,0.00,WUHU216DAVISVP2,2013-07-24 00:37:00,
2013-07-23 17:43:00,96.0,61.3,29.83,NNW,329,8.0,13.0,32,0.00,,,0.00,WUHU216DAVISVP2,2013-07-24 00:43:00,
2013-07-23 17:48:00,95.8,60.2,29.83,NNW,331,5.0,13.0,31,0.00,,,0.00,WUHU216DAVISVP2,2013-07-24 00:48:00,
2013-07-23 17:53:00,95.4,60.8,29.83,NW,313,12.0,14.0,32,0.00,,,0.00,WUHU216DAVISVP2,2013-07-24 00:53:00,
2013-07-23 17:58:00,95.3,61.6,29.83,NW,319,7.0,14.0,33,0.00,,,0.00,WUHU216DAVISVP2,2013-07-24 00:58:00,
2013-07-23 18:03:00,95.0,61.3,29.83,NW,325,5.0,14.0,33,0.00,,,0.00,WUHU216DAVISVP2,2013-07-24 01:03:00,
2013-07-23 18:08:00,95.0,61.3,29.83,NW,313,1.0,12.0,33,0.00,,,0.00,WUHU216DAVISVP2,2013-07-24 01:08:00,
2013-07-23 18:13:00,95.0,62.2,29.83,North,355,0.0,10.0,34,0.00,,,0.00,WUHU216DAVISVP2,2013-07-24 01:13:00,
2013-07-23 18:18:00,95.1,62.3,29.83,NW,321,4.0,11.0,34,0.00,,,0.00,WUHU216DAVISVP2,2013-07-24 01:18:00,
2013-07-23 18:23:00,94.8,62.1,29.83,WNW,298,5.0,12.0,34,0.00,,,0.00,WUHU216DAVISVP2,2013-07-24 01:23:00,
2013-07-23 18:28:00,94.6,61.9,29.83,NW,304,7.0,12.0,34,0.00,,,0.00,WUHU216DAVISVP2,2013-07-24 01:28:00,
2013-07-23 18:33:00,94.6,61.0,29.83,NW,320,13.0,13.0,33,0.00,,,0.00,WUHU216DAVISVP2,2013-07-24 01:33:00,
2013-07-23 18:38:00,94.4,60.8,29.82,WNW,295,6.0,13.0,33,0.00,,,0.00,WUHU216DAVISVP2,2013-07-24 01:38:00,
2013-07-23 18:43:00,94.3,60.7,29.82,NW,313,9.0,10.0,33,0.00,,,0.00,WUHU216DAVISVP2,2013-07-24 01:43:00,
2013-07-23 18:48:00,94.0,61.3,29.82,West,276,7.0,12.0,34,0.00,,,0.00,WUHU216DAVISVP2,2013-07-24 01:48:00,
2013-07-23 18:53:00,93.9,61.2,29.82,NW,307,8.0,12.0,34,0.00,,,0.00,WUHU216DAVISVP2,2013-07-24 01:53:00,
2013-07-23 18:58:00,93.7,61.9,29.82,NNW,334,5.0,12.0,35,0.00,,,0.00,WUHU216DAVISVP2,2013-07-24 01:58:00,
2013-07-23 19:03:00,93.5,61.7,29.83,NW,306,8.0,10.0,35,0.00,,,0.00,WUHU216DAVISVP2,2013-07-24 02:03:00,
2013-07-23 19:08:00,93.2,61.4,29.83,NW,313,6.0,11.0,35,0.00,,,0.00,WUHU216DAVISVP2,2013-07-24 02:08:00,
2013-07-23 19:13:00,92.9,61.2,29.83,NW,318,6.0,11.0,35,0.00,,,0.00,WUHU216DAVISVP2,2013-07-24 02:13:00,
2013-07-23 19:19:00,92.6,61.7,29.83,NW,314,5.0,11.0,36,0.00,,,0.00,WUHU216DAVISVP2,2013-07-24 02:19:00,
2013-07-23 19:24:00,92.2,61.3,29.83,NW,313,4.0,11.0,36,0.00,,,0.00,WUHU216DAVISVP2,2013-07-24 02:24:00,
2013-07-23 19:29:00,91.6,61.6,29.83,NW,323,9.0,9.0,37,0.00,,,0.00,WUHU216DAVISVP2,2013-07-24 02:29:00,
2013-07-23 19:34:00,91.0,61.8,29.83,NW,318,6.0,9.0,38,0.00,,,0.00,WUHU216DAVISVP2,2013-07-24 02:34:00,
2013-07-23 19:39:00,90.4,61.3,29.83,NW,315,5.0,9.0,38,0.00,,,0.00,WUHU216DAVISVP2,2013-07-24 02:39:00,
2013-07-23 19:44:00,90.0,61.7,29.83,NW,316,6.0,9.0,39,0.00,,,0.00,WUHU216DAVISVP2,2013-07-24 02:44:00,
2013-07-23 19:49:00,89.7,62.2,29.83,NW,324,1.0,10.0,40,0.00,,,0.00,WUHU216DAVISVP2,2013-07-24 02:49:00,
2013-07-23 19:54:00,89.3,62.5,29.83,NW,319,5.0,10.0,41,0.00,,,0.00,WUHU216DAVISVP2,2013-07-24 02:54:00,
2013-07-23 19:59:00,88.9,62.9,29.83,NNW,348,7.0,9.0,42,0.00,,,0.00,WUHU216DAVISVP2,2013-07-24 02:59:00,
2013-07-23 20:04:00,88.6,62.6,29.84,NW,312,1.0,8.0,42,0.00,,,0.00,WUHU216DAVISVP2,2013-07-24 03:04:00,
2013-07-23 20:09:00,88.3,63.0,29.84,NW,326,4.0,10.0,43,0.00,,,0.00,WUHU216DAVISVP2,2013-07-24 03:09:00,
2013-07-23 20:14:00,87.9,62.6,29.84,NW,306,7.0,10.0,43,0.00,,,0.00,WUHU216DAVISVP2,2013-07-24 03:14:00,
2013-07-23 20:19:00,87.5,62.3,29.84,NNW,329,9.0,11.0,43,0.00,,,0.00,WUHU216DAVISVP2,2013-07-24 03:19:00,
2013-07-23 20:24:00,87.1,61.2,29.84,WNW,302,8.0,11.0,42,0.00,,,0.00,WUHU216DAVISVP2,2013-07-24 03:24:00,
2013-07-23 20:29:00,86.8,61.6,29.84,WNW,294,6.0,9.0,43,0.00,,,0.00,WUHU216DAVISVP2,2013-07-24 03:29:00,
2013-07-23 20:34:00,86.5,60.7,29.84,NW,307,2.0,8.0,42,0.00,,,0.00,WUHU216DAVISVP2,2013-07-24 03:34:00,
2013-07-23 20:39:00,86.1,60.3,29.84,NW,317,5.0,10.0,42,0.00,,,0.00,WUHU216DAVISVP2,2013-07-24 03:39:00,
2013-07-23 20:44:00,85.8,60.1,29.85,WNW,303,0.0,10.0,42,0.00,,,0.00,WUHU216DAVISVP2,2013-07-24 03:44:00,
2013-07-23 20:50:00,85.6,60.6,29.85,NNW,337,3.0,9.0,43,0.00,,,0.00,WUHU216DAVISVP2,2013-07-24 03:50:00,
2013-07-23 20:55:00,85.3,61.6,29.85,NW,317,5.0,7.0,45,0.00,,,0.00,WUHU216DAVISVP2,2013-07-24 03:55:00,
2013-07-23 21:00:00,85.0,62.6,29.85,NW,306,9.0,9.0,47,0.00,,,0.00,WUHU216DAVISVP2,2013-07-24 04:00:00,
2013-07-23 21:01:00,84.9,62.5,29.85,WNW,298,6.0,9.0,47,0.00,,,0.00,WUHU216DAVISVP2,2013-07-24 04:01:00,
2013-07-23 21:06:00,84.5,62.1,29.85,NW,305,6.0,9.0,47,0.00,,,0.00,WUHU216DAVISVP2,2013-07-24 04:06:00,
2013-07-23 21:11:00,84.1,61.1,29.85,NW,320,3.0,9.0,46,0.00,,,0.00,WUHU216DAVISVP2,2013-07-24 04:11:00,
2013-07-23 21:16:00,83.8,60.9,29.86,WNW,297,7.0,10.0,46,0.00,,,0.00,WUHU216DAVISVP2,2013-07-24 04:16:00,
2013-07-23 21:21:00,83.6,60.7,29.86,NW,307,5.0,10.0,46,0.00,,,0.00,WUHU216DAVISVP2,2013-07-24 04:21:00,
2013-07-23 21:26:00,83.4,60.5,29.86,West,269,4.0,10.0,46,0.00,,,0.00,WUHU216DAVISVP2,2013-07-24 04:26:00,
2013-07-23 21:31:00,83.1,60.2,29.86,WNW,296,4.0,10.0,46,0.00,,,0.00,WUHU216DAVISVP2,2013-07-24 04:31:00,
2013-07-23 21:36:00,82.9,60.7,29.86,NW,307,0.0,10.0,47,0.00,,,0.00,WUHU216DAVISVP2,2013-07-24 04:36:00,
2013-07-23 21:41:00,82.7,61.1,29.86,NW,308,1.0,9.0,48,0.00,,,0.00,WUHU216DAVISVP2,2013-07-24 04:41:00,
2013-07-23 21:46:00,82.3,60.1,29.86,NW,321,4.0,10.0,47,0.00,,,0.00,WUHU216DAVISVP2,2013-07-24 04:46:00,
2013-07-23 21:51:00,82.1,59.9,29.86,NW,306,6.0,11.0,47,0.00,,,0.00,WUHU216DAVISVP2,2013-07-24 04:51:00,
2013-07-23 21:56:00,81.9,59.8,29.86,WNW,284,8.0,11.0,47,0.00,,,0.00,WUHU216DAVISVP2,2013-07-24 04:56:00,
2013-07-23 22:01:00,81.7,60.2,29.87,WNW,284,3.0,11.0,48,0.00,,,0.00,WUHU216DAVISVP2,2013-07-24 05:01:00,
2013-07-23 22:06:00,81.5,60.0,29.87,WNW,298,5.0,11.0,48,0.00,,,0.00,WUHU216DAVISVP2,2013-07-24 05:06:00,
2013-07-23 22:11:00,81.2,60.3,29.87,NW,306,6.0,9.0,49,0.00,,,0.00,WUHU216DAVISVP2,2013-07-24 05:11:00,
2013-07-23 22:16:00,80.9,60.6,29.87,WNW,297,5.0,11.0,50,0.00,,,0.00,WUHU216DAVISVP2,2013-07-24 05:16:00,
2013-07-23 22:21:00,80.6,60.2,29.87,WNW,300,5.0,11.0,50,0.00,,,0.00,WUHU216DAVISVP2,2013-07-24 05:21:00,
2013-07-23 22:26:00,80.3,60.1,29.87,WNW,293,4.0,11.0,50,0.00,,,0.00,WUHU216DAVISVP2,2013-07-24 05:26:00,
2013-07-23 22:31:00,80.1,59.9,29.87,WNW,294,8.0,11.0,50,0.00,,,0.00,WUHU216DAVISVP2,2013-07-24 05:31:00,
2013-07-23 22:36:00,79.9,60.3,29.87,NW,305,3.0,10.0,51,0.00,,,0.00,WUHU216DAVISVP2,2013-07-24 05:36:00,
2013-07-23 22:41:00,79.7,60.1,29.87,NW,304,3.0,10.0,51,0.00,,,0.00,WUHU216DAVISVP2,2013-07-24 05:41:00,
2013-07-23 22:46:00,79.5,59.9,29.87,NW,307,5.0,10.0,51,0.00,,,0.00,WUHU216DAVISVP2,2013-07-24 05:46:00,
2013-07-23 22:51:00,79.3,60.3,29.87,WNW,301,8.0,10.0,52,0.00,,,0.00,WUHU216DAVISVP2,2013-07-24 05:51:00,
2013-07-23 22:56:00,79.1,60.1,29.87,NW,313,4.0,10.0,52,0.00,,,0.00,WUHU216DAVISVP2,2013-07-24 05:56:00,
2013-07-23 23:01:00,78.9,59.9,29.87,NW,304,3.0,11.0,52,0.00,,,0.00,WUHU216DAVISVP2,2013-07-24 06:01:00,
2013-07-23 23:06:00,78.7,59.7,29.87,WNW,300,8.0,11.0,52,0.00,,,0.00,WUHU216DAVISVP2,2013-07-24 06:06:00,
2013-07-23 23:11:00,78.6,59.6,29.87,NW,311,5.0,11.0,52,0.00,,,0.00,WUHU216DAVISVP2,2013-07-24 06:11:00,
2013-07-23 23:16:00,78.5,59.5,29.88,WNW,290,7.0,9.0,52,0.00,,,0.00,WUHU216DAVISVP2,2013-07-24 06:16:00,
2013-07-23 23:21:00,78.3,59.4,29.87,NW,319,7.0,10.0,52,0.00,,,0.00,WUHU216DAVISVP2,2013-07-24 06:21:00,
2013-07-23 23:26:00,78.1,59.2,29.87,WNW,301,5.0,12.0,52,0.00,,,0.00,WUHU216DAVISVP2,2013-07-24 06:26:00,
2013-07-23 23:31:00,78.0,58.9,29.87,WNW,303,5.0,12.0,52,0.00,,,0.00,WUHU216DAVISVP2,2013-07-24 06:31:00,
2013-07-23 23:36:00,77.8,58.3,29.87,NW,304,10.0,13.0,51,0.00,,,0.00,WUHU216DAVISVP2,2013-07-24 06:36:00,
2013-07-23 23:41:00,77.6,58.0,29.88,NW,325,7.0,13.0,51,0.00,,,0.00,WUHU216DAVISVP2,2013-07-24 06:41:00,
2013-07-23 23:46:00,77.5,58.6,29.87,NW,317,8.0,11.0,52,0.00,,,0.00,WUHU216DAVISVP2,2013-07-24 06:46:00,
2013-07-23 23:51:00,77.3,57.8,29.88,NW,316,3.0,11.0,51,0.00,,,0.00,WUHU216DAVISVP2,2013-07-24 06:51:00,
2013-07-23 23:56:00,77.2,58.3,29.87,WNW,298,8.0,10.0,52,0.00,,,0.00,WUHU216DAVISVP2,2013-07-24 06:56:00,